owner,sensor,date,latitude,longitude,air_temperature,qcFlag 
WAVCIS,ioos:station:WAVCIS:CSI16:1,2009-02-01T00:00:00Z,29.4012,-89.0355,12.72,11111222 
WAVCIS,ioos:station:WAVCIS:CSI16:1,2009-02-01T01:00:00Z,29.4012,-89.0355,12.19,11111222 
WAVCIS,ioos:station:WAVCIS:CSI16:1,2009-02-01T02:00:00Z,29.4012,-89.0355,11.74,11111222 
WAVCIS,ioos:station:WAVCIS:CSI16:1,2009-02-01T03:00:00Z,29.4012,-89.0355,11.54,11111222 
WAVCIS,ioos:station:WAVCIS:CSI16:1,2009-02-01T04:00:00Z,29.4012,-89.0355,11.37,11111222 
WAVCIS,ioos:station:WAVCIS:CSI16:1,2009-02-01T05:00:00Z,29.4012,-89.0355,10.91,11111222 
WAVCIS,ioos:station:WAVCIS:CSI16:1,2009-02-01T06:00:00Z,29.4012,-89.0355,11.54,11111222 
WAVCIS,ioos:station:WAVCIS:CSI16:1,2009-02-01T07:00:00Z,29.4012,-89.0355,11.14,11111222 
WAVCIS,ioos:station:WAVCIS:CSI16:1,2009-02-01T08:00:00Z,29.4012,-89.0355,11.75,11111222 
WAVCIS,ioos:station:WAVCIS:CSI16:1,2009-02-01T09:00:00Z,29.4012,-89.0355,11.55,11111222 
WAVCIS,ioos:station:WAVCIS:CSI16:1,2009-02-01T10:00:00Z,29.4012,-89.0355,12.38,11111222 
WAVCIS,ioos:station:WAVCIS:CSI16:1,2009-02-01T11:00:00Z,29.4012,-89.0355,12.56,11111222 
WAVCIS,ioos:station:WAVCIS:CSI16:1,2009-02-01T12:00:00Z,29.4012,-89.0355,12.58,11111222 
WAVCIS,ioos:station:WAVCIS:CSI16:1,2009-02-01T13:00:00Z,29.4012,-89.0355,12.96,11111222 
WAVCIS,ioos:station:WAVCIS:CSI16:1,2009-02-01T14:00:00Z,29.4012,-89.0355,13.56,11111222 
WAVCIS,ioos:station:WAVCIS:CSI16:1,2009-02-01T15:00:00Z,29.4012,-89.0355,13.53,11111222 
WAVCIS,ioos:station:WAVCIS:CSI16:1,2009-02-01T16:00:00Z,29.4012,-89.0355,13.87,11111222 
WAVCIS,ioos:station:WAVCIS:CSI16:1,2009-02-01T17:00:00Z,29.4012,-89.0355,14.99,11111222 
WAVCIS,ioos:station:WAVCIS:CSI16:1,2009-02-01T18:00:00Z,29.4012,-89.0355,15.7,11111222 
WAVCIS,ioos:station:WAVCIS:CSI16:1,2009-02-01T19:00:00Z,29.4012,-89.0355,15.95,11111222 
WAVCIS,ioos:station:WAVCIS:CSI16:1,2009-02-01T20:00:00Z,29.4012,-89.0355,16.05,11111222 
WAVCIS,ioos:station:WAVCIS:CSI16:1,2009-02-01T21:00:00Z,29.4012,-89.0355,16.4,11111222 
WAVCIS,ioos:station:WAVCIS:CSI16:1,2009-02-01T22:00:00Z,29.4012,-89.0355,16.54,11111222 
WAVCIS,ioos:station:WAVCIS:CSI16:1,2009-02-01T23:00:00Z,29.4012,-89.0355,16.75,11111222 
WAVCIS,ioos:station:WAVCIS:CSI16:1,2009-02-02T00:00:00Z,29.4012,-89.0355,16.77,11111222 
WAVCIS,ioos:station:WAVCIS:CSI16:1,2009-02-02T01:00:00Z,29.4012,-89.0355,17.01,11111222 
WAVCIS,ioos:station:WAVCIS:CSI16:1,2009-02-02T02:00:00Z,29.4012,-89.0355,17.26,11111222 
WAVCIS,ioos:station:WAVCIS:CSI16:1,2009-02-02T03:00:00Z,29.4012,-89.0355,15.82,11111222 
WAVCIS,ioos:station:WAVCIS:CSI16:1,2009-02-02T04:00:00Z,29.4012,-89.0355,15.23,11111222 
WAVCIS,ioos:station:WAVCIS:CSI16:1,2009-02-02T05:00:00Z,29.4012,-89.0355,14.7,11111222 
WAVCIS,ioos:station:WAVCIS:CSI16:1,2009-02-02T06:00:00Z,29.4012,-89.0355,14.79,11111222 
WAVCIS,ioos:station:WAVCIS:CSI16:1,2009-02-02T07:00:00Z,29.4012,-89.0355,14.87,11111222 
WAVCIS,ioos:station:WAVCIS:CSI16:1,2009-02-02T08:00:00Z,29.4012,-89.0355,15.33,11111222 
WAVCIS,ioos:station:WAVCIS:CSI16:1,2009-02-02T09:00:00Z,29.4012,-89.0355,15.38,11111222 
WAVCIS,ioos:station:WAVCIS:CSI16:1,2009-02-02T10:00:00Z,29.4012,-89.0355,15.99,11111222 
WAVCIS,ioos:station:WAVCIS:CSI16:1,2009-02-02T11:00:00Z,29.4012,-89.0355,16.14,11111222 
WAVCIS,ioos:station:WAVCIS:CSI16:1,2009-02-02T12:00:00Z,29.4012,-89.0355,16.45,11111222 
WAVCIS,ioos:station:WAVCIS:CSI16:1,2009-02-02T13:00:00Z,29.4012,-89.0355,16.44,11111222 
WAVCIS,ioos:station:WAVCIS:CSI16:1,2009-02-02T14:00:00Z,29.4012,-89.0355,16.27,11111222 
WAVCIS,ioos:station:WAVCIS:CSI16:1,2009-02-02T15:00:00Z,29.4012,-89.0355,15.87,11111222 
WAVCIS,ioos:station:WAVCIS:CSI16:1,2009-02-02T16:00:00Z,29.4012,-89.0355,15.52,11111222 
WAVCIS,ioos:station:WAVCIS:CSI16:1,2009-02-02T17:00:00Z,29.4012,-89.0355,15.63,11111222 
WAVCIS,ioos:station:WAVCIS:CSI16:1,2009-02-02T18:00:00Z,29.4012,-89.0355,13.68,11111222 
WAVCIS,ioos:station:WAVCIS:CSI16:1,2009-02-02T19:00:00Z,29.4012,-89.0355,13.52,11111222 
WAVCIS,ioos:station:WAVCIS:CSI16:1,2009-02-02T20:00:00Z,29.4012,-89.0355,12.95,11111222 
WAVCIS,ioos:station:WAVCIS:CSI16:1,2009-02-02T21:00:00Z,29.4012,-89.0355,13.45,11111222 
WAVCIS,ioos:station:WAVCIS:CSI16:1,2009-02-02T22:00:00Z,29.4012,-89.0355,12.9,11111222 
WAVCIS,ioos:station:WAVCIS:CSI16:1,2009-02-02T23:00:00Z,29.4012,-89.0355,11.75,11111222 
WAVCIS,ioos:station:WAVCIS:CSI16:1,2009-02-03T00:00:00Z,29.4012,-89.0355,11.52,11111222 
WAVCIS,ioos:station:WAVCIS:CSI16:1,2009-02-03T01:00:00Z,29.4012,-89.0355,11.7,11111222 
WAVCIS,ioos:station:WAVCIS:CSI16:1,2009-02-03T02:00:00Z,29.4012,-89.0355,11.87,11111222 
WAVCIS,ioos:station:WAVCIS:CSI16:1,2009-02-03T03:00:00Z,29.4012,-89.0355,11.27,11111222 
WAVCIS,ioos:station:WAVCIS:CSI16:1,2009-02-03T04:00:00Z,29.4012,-89.0355,10.81,11111222 
WAVCIS,ioos:station:WAVCIS:CSI16:1,2009-02-03T05:00:00Z,29.4012,-89.0355,10.2,11111222 
WAVCIS,ioos:station:WAVCIS:CSI16:1,2009-02-03T06:00:00Z,29.4012,-89.0355,9.62,11111222 
WAVCIS,ioos:station:WAVCIS:CSI16:1,2009-02-03T07:00:00Z,29.4012,-89.0355,8.85,11111222 
WAVCIS,ioos:station:WAVCIS:CSI16:1,2009-02-03T08:00:00Z,29.4012,-89.0355,8.34,11111222 
WAVCIS,ioos:station:WAVCIS:CSI16:1,2009-02-03T09:00:00Z,29.4012,-89.0355,10.02,11111222 
WAVCIS,ioos:station:WAVCIS:CSI16:1,2009-02-03T10:00:00Z,29.4012,-89.0355,13.92,11111222 
WAVCIS,ioos:station:WAVCIS:CSI16:1,2009-02-03T11:00:00Z,29.4012,-89.0355,12.3,11111222 
WAVCIS,ioos:station:WAVCIS:CSI16:1,2009-02-03T12:00:00Z,29.4012,-89.0355,13.85,11111222 
WAVCIS,ioos:station:WAVCIS:CSI16:1,2009-02-03T13:00:00Z,29.4012,-89.0355,12.64,11111222 
WAVCIS,ioos:station:WAVCIS:CSI16:1,2009-02-03T14:00:00Z,29.4012,-89.0355,14.74,11111222 
WAVCIS,ioos:station:WAVCIS:CSI16:1,2009-02-03T15:00:00Z,29.4012,-89.0355,12.99,11111222 
WAVCIS,ioos:station:WAVCIS:CSI16:1,2009-02-03T16:00:00Z,29.4012,-89.0355,10.22,11111222 
WAVCIS,ioos:station:WAVCIS:CSI16:1,2009-02-03T17:00:00Z,29.4012,-89.0355,9.34,11111222 
WAVCIS,ioos:station:WAVCIS:CSI16:1,2009-02-03T18:00:00Z,29.4012,-89.0355,9.13,11111222 
WAVCIS,ioos:station:WAVCIS:CSI16:1,2009-02-03T19:00:00Z,29.4012,-89.0355,10.59,11111222 
WAVCIS,ioos:station:WAVCIS:CSI16:1,2009-02-03T20:00:00Z,29.4012,-89.0355,9.44,11111222 
WAVCIS,ioos:station:WAVCIS:CSI16:1,2009-02-03T21:00:00Z,29.4012,-89.0355,9.99,11111222 
WAVCIS,ioos:station:WAVCIS:CSI16:1,2009-02-03T22:00:00Z,29.4012,-89.0355,10.87,11111222 
WAVCIS,ioos:station:WAVCIS:CSI16:1,2009-02-03T23:00:00Z,29.4012,-89.0355,10.87,11111222 
WAVCIS,ioos:station:WAVCIS:CSI16:1,2009-02-04T00:00:00Z,29.4012,-89.0355,10.95,11111222 
WAVCIS,ioos:station:WAVCIS:CSI16:1,2009-02-04T01:00:00Z,29.4012,-89.0355,11.32,11111222 
WAVCIS,ioos:station:WAVCIS:CSI16:1,2009-02-04T02:00:00Z,29.4012,-89.0355,11.31,11111222 
WAVCIS,ioos:station:WAVCIS:CSI16:1,2009-02-04T03:00:00Z,29.4012,-89.0355,10.93,11111222 
WAVCIS,ioos:station:WAVCIS:CSI16:1,2009-02-04T04:00:00Z,29.4012,-89.0355,10.59,11111222 
WAVCIS,ioos:station:WAVCIS:CSI16:1,2009-02-04T05:00:00Z,29.4012,-89.0355,10.62,11111222 
WAVCIS,ioos:station:WAVCIS:CSI16:1,2009-02-04T06:00:00Z,29.4012,-89.0355,10.78,11111222 
WAVCIS,ioos:station:WAVCIS:CSI16:1,2009-02-04T07:00:00Z,29.4012,-89.0355,10.75,11111222 
WAVCIS,ioos:station:WAVCIS:CSI16:1,2009-02-04T08:00:00Z,29.4012,-89.0355,10.29,11111222 
WAVCIS,ioos:station:WAVCIS:CSI16:1,2009-02-04T09:00:00Z,29.4012,-89.0355,10.12,11111222 
WAVCIS,ioos:station:WAVCIS:CSI16:1,2009-02-04T10:00:00Z,29.4012,-89.0355,11.23,11111222 
WAVCIS,ioos:station:WAVCIS:CSI16:1,2009-02-04T11:00:00Z,29.4012,-89.0355,8.33,11111222 
WAVCIS,ioos:station:WAVCIS:CSI16:1,2009-02-04T12:00:00Z,29.4012,-89.0355,9.29,11111222 
WAVCIS,ioos:station:WAVCIS:CSI16:1,2009-02-04T13:00:00Z,29.4012,-89.0355,8.72,11111222 
WAVCIS,ioos:station:WAVCIS:CSI16:1,2009-02-04T14:00:00Z,29.4012,-89.0355,9.01,11111222 
WAVCIS,ioos:station:WAVCIS:CSI16:1,2009-02-04T15:00:00Z,29.4012,-89.0355,9.88,11111222 
WAVCIS,ioos:station:WAVCIS:CSI16:1,2009-02-04T16:00:00Z,29.4012,-89.0355,9.0,11111222 
WAVCIS,ioos:station:WAVCIS:CSI16:1,2009-02-04T17:00:00Z,29.4012,-89.0355,10.18,11111222 
WAVCIS,ioos:station:WAVCIS:CSI16:1,2009-02-04T18:00:00Z,29.4012,-89.0355,9.76,11111222 
WAVCIS,ioos:station:WAVCIS:CSI16:1,2009-02-04T19:00:00Z,29.4012,-89.0355,8.09,11111222 
WAVCIS,ioos:station:WAVCIS:CSI16:1,2009-02-04T20:00:00Z,29.4012,-89.0355,3.577,11111222 
WAVCIS,ioos:station:WAVCIS:CSI16:1,2009-02-04T21:00:00Z,29.4012,-89.0355,2.972,11111222 
WAVCIS,ioos:station:WAVCIS:CSI16:1,2009-02-04T22:00:00Z,29.4012,-89.0355,4.025,11111222 
WAVCIS,ioos:station:WAVCIS:CSI16:1,2009-02-04T23:00:00Z,29.4012,-89.0355,5.205,11111222 
WAVCIS,ioos:station:WAVCIS:CSI16:1,2009-02-05T00:00:00Z,29.4012,-89.0355,5.149,11111222 
WAVCIS,ioos:station:WAVCIS:CSI16:1,2009-02-05T01:00:00Z,29.4012,-89.0355,6.25,11111222 
WAVCIS,ioos:station:WAVCIS:CSI16:1,2009-02-05T02:00:00Z,29.4012,-89.0355,7.69,11111222 
WAVCIS,ioos:station:WAVCIS:CSI16:1,2009-02-05T03:00:00Z,29.4012,-89.0355,8.26,11111222 
WAVCIS,ioos:station:WAVCIS:CSI16:1,2009-02-05T04:00:00Z,29.4012,-89.0355,8.56,11111222 
WAVCIS,ioos:station:WAVCIS:CSI16:1,2009-02-05T05:00:00Z,29.4012,-89.0355,11.21,11111222 
WAVCIS,ioos:station:WAVCIS:CSI16:1,2009-02-05T06:00:00Z,29.4012,-89.0355,8.99,11111222 
WAVCIS,ioos:station:WAVCIS:CSI16:1,2009-02-05T07:00:00Z,29.4012,-89.0355,8.45,11111222 
WAVCIS,ioos:station:WAVCIS:CSI16:1,2009-02-05T08:00:00Z,29.4012,-89.0355,8.45,11111222 
WAVCIS,ioos:station:WAVCIS:CSI16:1,2009-02-05T09:00:00Z,29.4012,-89.0355,10.01,11111222 
WAVCIS,ioos:station:WAVCIS:CSI16:1,2009-02-05T10:00:00Z,29.4012,-89.0355,11.53,11111222 
WAVCIS,ioos:station:WAVCIS:CSI16:1,2009-02-05T11:00:00Z,29.4012,-89.0355,10.15,11111222 
WAVCIS,ioos:station:WAVCIS:CSI16:1,2009-02-05T12:00:00Z,29.4012,-89.0355,7.0,11111222 
WAVCIS,ioos:station:WAVCIS:CSI16:1,2009-02-05T13:00:00Z,29.4012,-89.0355,7.87,11111222 
WAVCIS,ioos:station:WAVCIS:CSI16:1,2009-02-05T14:00:00Z,29.4012,-89.0355,8.37,11111222 
WAVCIS,ioos:station:WAVCIS:CSI16:1,2009-02-05T15:00:00Z,29.4012,-89.0355,8.05,11111222 
WAVCIS,ioos:station:WAVCIS:CSI16:1,2009-02-05T16:00:00Z,29.4012,-89.0355,8.15,11111222 
WAVCIS,ioos:station:WAVCIS:CSI16:1,2009-02-05T17:00:00Z,29.4012,-89.0355,8.29,11111222 
WAVCIS,ioos:station:WAVCIS:CSI16:1,2009-02-05T18:00:00Z,29.4012,-89.0355,8.68,11111222 
WAVCIS,ioos:station:WAVCIS:CSI16:1,2009-02-05T19:00:00Z,29.4012,-89.0355,8.94,11111222 
WAVCIS,ioos:station:WAVCIS:CSI16:1,2009-02-05T20:00:00Z,29.4012,-89.0355,9.21,11111222 
WAVCIS,ioos:station:WAVCIS:CSI16:1,2009-02-05T21:00:00Z,29.4012,-89.0355,9.86,11111222 
WAVCIS,ioos:station:WAVCIS:CSI16:1,2009-02-05T22:00:00Z,29.4012,-89.0355,10.03,11111222 
WAVCIS,ioos:station:WAVCIS:CSI16:1,2009-02-05T23:00:00Z,29.4012,-89.0355,10.02,11111222 
WAVCIS,ioos:station:WAVCIS:CSI16:1,2009-02-06T00:00:00Z,29.4012,-89.0355,9.91,11111222 
WAVCIS,ioos:station:WAVCIS:CSI16:1,2009-02-06T01:00:00Z,29.4012,-89.0355,10.18,11111222 
WAVCIS,ioos:station:WAVCIS:CSI16:1,2009-02-06T02:00:00Z,29.4012,-89.0355,10.57,11111222 
WAVCIS,ioos:station:WAVCIS:CSI16:1,2009-02-06T03:00:00Z,29.4012,-89.0355,11.02,11111222 
WAVCIS,ioos:station:WAVCIS:CSI16:1,2009-02-06T04:00:00Z,29.4012,-89.0355,11.45,11111222 
WAVCIS,ioos:station:WAVCIS:CSI16:1,2009-02-06T05:00:00Z,29.4012,-89.0355,11.6,11111222 
WAVCIS,ioos:station:WAVCIS:CSI16:1,2009-02-06T06:00:00Z,29.4012,-89.0355,11.38,11111222 
WAVCIS,ioos:station:WAVCIS:CSI16:1,2009-02-06T07:00:00Z,29.4012,-89.0355,11.4,11111222 
WAVCIS,ioos:station:WAVCIS:CSI16:1,2009-02-06T08:00:00Z,29.4012,-89.0355,11.74,11111222 
WAVCIS,ioos:station:WAVCIS:CSI16:1,2009-02-06T09:00:00Z,29.4012,-89.0355,11.81,11111222 
WAVCIS,ioos:station:WAVCIS:CSI16:1,2009-02-06T10:00:00Z,29.4012,-89.0355,11.33,11111222 
WAVCIS,ioos:station:WAVCIS:CSI16:1,2009-02-06T11:00:00Z,29.4012,-89.0355,11.79,11111222 
WAVCIS,ioos:station:WAVCIS:CSI16:1,2009-02-06T12:00:00Z,29.4012,-89.0355,11.71,11111222 
WAVCIS,ioos:station:WAVCIS:CSI16:1,2009-02-06T13:00:00Z,29.4012,-89.0355,12.57,11111222 
WAVCIS,ioos:station:WAVCIS:CSI16:1,2009-02-06T14:00:00Z,29.4012,-89.0355,13.23,11111222 
WAVCIS,ioos:station:WAVCIS:CSI16:1,2009-02-06T15:00:00Z,29.4012,-89.0355,13.12,11111222 
WAVCIS,ioos:station:WAVCIS:CSI16:1,2009-02-06T16:00:00Z,29.4012,-89.0355,14.05,11111222 
WAVCIS,ioos:station:WAVCIS:CSI16:1,2009-02-06T17:00:00Z,29.4012,-89.0355,13.78,11111222 
WAVCIS,ioos:station:WAVCIS:CSI16:1,2009-02-06T18:00:00Z,29.4012,-89.0355,13.67,11111222 
WAVCIS,ioos:station:WAVCIS:CSI16:1,2009-02-06T19:00:00Z,29.4012,-89.0355,14.01,11111222 
WAVCIS,ioos:station:WAVCIS:CSI16:1,2009-02-06T20:00:00Z,29.4012,-89.0355,14.7,11111222 
WAVCIS,ioos:station:WAVCIS:CSI16:1,2009-02-06T21:00:00Z,29.4012,-89.0355,15.31,11111222 
WAVCIS,ioos:station:WAVCIS:CSI16:1,2009-02-06T22:00:00Z,29.4012,-89.0355,15.67,11111222 
WAVCIS,ioos:station:WAVCIS:CSI16:1,2009-02-06T23:00:00Z,29.4012,-89.0355,15.17,11111222 
WAVCIS,ioos:station:WAVCIS:CSI16:1,2009-02-07T00:00:00Z,29.4012,-89.0355,14.31,11111222 
WAVCIS,ioos:station:WAVCIS:CSI16:1,2009-02-07T01:00:00Z,29.4012,-89.0355,14.47,11111222 
WAVCIS,ioos:station:WAVCIS:CSI16:1,2009-02-07T02:00:00Z,29.4012,-89.0355,14.43,11111222 
WAVCIS,ioos:station:WAVCIS:CSI16:1,2009-02-07T03:00:00Z,29.4012,-89.0355,14.74,11111222 
WAVCIS,ioos:station:WAVCIS:CSI16:1,2009-02-07T04:00:00Z,29.4012,-89.0355,14.65,11111222 
WAVCIS,ioos:station:WAVCIS:CSI16:1,2009-02-07T05:00:00Z,29.4012,-89.0355,14.22,11111222 
WAVCIS,ioos:station:WAVCIS:CSI16:1,2009-02-07T06:00:00Z,29.4012,-89.0355,14.58,11111222 
WAVCIS,ioos:station:WAVCIS:CSI16:1,2009-02-07T07:00:00Z,29.4012,-89.0355,14.26,11111222 
WAVCIS,ioos:station:WAVCIS:CSI16:1,2009-02-07T08:00:00Z,29.4012,-89.0355,14.82,11111222 
WAVCIS,ioos:station:WAVCIS:CSI16:1,2009-02-07T09:00:00Z,29.4012,-89.0355,14.04,11111222 
WAVCIS,ioos:station:WAVCIS:CSI16:1,2009-02-07T10:00:00Z,29.4012,-89.0355,14.66,11111222 
WAVCIS,ioos:station:WAVCIS:CSI16:1,2009-02-07T11:00:00Z,29.4012,-89.0355,15.78,11111222 
WAVCIS,ioos:station:WAVCIS:CSI16:1,2009-02-07T12:00:00Z,29.4012,-89.0355,14.69,11111222 
WAVCIS,ioos:station:WAVCIS:CSI16:1,2009-02-07T13:00:00Z,29.4012,-89.0355,15.05,11111222 
WAVCIS,ioos:station:WAVCIS:CSI16:1,2009-02-07T14:00:00Z,29.4012,-89.0355,15.78,11111222 
WAVCIS,ioos:station:WAVCIS:CSI16:1,2009-02-07T15:00:00Z,29.4012,-89.0355,17.38,11111222 
WAVCIS,ioos:station:WAVCIS:CSI16:1,2009-02-07T16:00:00Z,29.4012,-89.0355,16.97,11111222 
WAVCIS,ioos:station:WAVCIS:CSI16:1,2009-02-07T17:00:00Z,29.4012,-89.0355,17.57,11111222 
WAVCIS,ioos:station:WAVCIS:CSI16:1,2009-02-07T18:00:00Z,29.4012,-89.0355,16.48,11111222 
WAVCIS,ioos:station:WAVCIS:CSI16:1,2009-02-07T19:00:00Z,29.4012,-89.0355,17.34,11111222 
WAVCIS,ioos:station:WAVCIS:CSI16:1,2009-02-07T20:00:00Z,29.4012,-89.0355,17.29,11111222 
WAVCIS,ioos:station:WAVCIS:CSI16:1,2009-02-07T21:00:00Z,29.4012,-89.0355,17.19,11111222 
WAVCIS,ioos:station:WAVCIS:CSI16:1,2009-02-07T22:00:00Z,29.4012,-89.0355,17.04,11111222 
WAVCIS,ioos:station:WAVCIS:CSI16:1,2009-02-07T23:00:00Z,29.4012,-89.0355,16.84,11111222 
WAVCIS,ioos:station:WAVCIS:CSI16:1,2009-02-08T00:00:00Z,29.4012,-89.0355,16.92,11111222 
WAVCIS,ioos:station:WAVCIS:CSI16:1,2009-02-08T01:00:00Z,29.4012,-89.0355,16.77,11111222 
WAVCIS,ioos:station:WAVCIS:CSI16:1,2009-02-08T02:00:00Z,29.4012,-89.0355,16.62,11111222 
WAVCIS,ioos:station:WAVCIS:CSI16:1,2009-02-08T03:00:00Z,29.4012,-89.0355,15.99,11111222 
WAVCIS,ioos:station:WAVCIS:CSI16:1,2009-02-08T04:00:00Z,29.4012,-89.0355,15.66,11111222 
WAVCIS,ioos:station:WAVCIS:CSI16:1,2009-02-08T05:00:00Z,29.4012,-89.0355,15.81,11111222 
WAVCIS,ioos:station:WAVCIS:CSI16:1,2009-02-08T06:00:00Z,29.4012,-89.0355,15.97,11111222 
WAVCIS,ioos:station:WAVCIS:CSI16:1,2009-02-08T07:00:00Z,29.4012,-89.0355,15.87,11111222 
WAVCIS,ioos:station:WAVCIS:CSI16:1,2009-02-08T08:00:00Z,29.4012,-89.0355,15.97,11111222 
WAVCIS,ioos:station:WAVCIS:CSI16:1,2009-02-08T09:00:00Z,29.4012,-89.0355,16.16,11111222 
WAVCIS,ioos:station:WAVCIS:CSI16:1,2009-02-08T10:00:00Z,29.4012,-89.0355,16.33,11111222 
WAVCIS,ioos:station:WAVCIS:CSI16:1,2009-02-08T11:00:00Z,29.4012,-89.0355,16.09,11111222 
WAVCIS,ioos:station:WAVCIS:CSI16:1,2009-02-08T12:00:00Z,29.4012,-89.0355,16.92,11111222 
WAVCIS,ioos:station:WAVCIS:CSI16:1,2009-02-08T13:00:00Z,29.4012,-89.0355,16.23,11111222 
WAVCIS,ioos:station:WAVCIS:CSI16:1,2009-02-08T14:00:00Z,29.4012,-89.0355,16.68,11111222 
WAVCIS,ioos:station:WAVCIS:CSI16:1,2009-02-08T15:00:00Z,29.4012,-89.0355,17.68,11111222 
WAVCIS,ioos:station:WAVCIS:CSI16:1,2009-02-08T16:00:00Z,29.4012,-89.0355,16.74,11111222 
WAVCIS,ioos:station:WAVCIS:CSI16:1,2009-02-08T17:00:00Z,29.4012,-89.0355,16.41,11111222 
WAVCIS,ioos:station:WAVCIS:CSI16:1,2009-02-08T18:00:00Z,29.4012,-89.0355,16.51,11111222 
WAVCIS,ioos:station:WAVCIS:CSI16:1,2009-02-08T19:00:00Z,29.4012,-89.0355,17.5,11111222 
WAVCIS,ioos:station:WAVCIS:CSI16:1,2009-02-08T20:00:00Z,29.4012,-89.0355,17.17,11111222 
WAVCIS,ioos:station:WAVCIS:CSI16:1,2009-02-08T21:00:00Z,29.4012,-89.0355,17.09,11111222 
WAVCIS,ioos:station:WAVCIS:CSI16:1,2009-02-08T22:00:00Z,29.4012,-89.0355,17.37,11111222 
WAVCIS,ioos:station:WAVCIS:CSI16:1,2009-02-08T23:00:00Z,29.4012,-89.0355,17.27,11111222 
WAVCIS,ioos:station:WAVCIS:CSI16:1,2009-02-09T00:00:00Z,29.4012,-89.0355,16.8,11111222 
WAVCIS,ioos:station:WAVCIS:CSI16:1,2009-02-09T01:00:00Z,29.4012,-89.0355,17.43,11111222 
WAVCIS,ioos:station:WAVCIS:CSI16:1,2009-02-09T02:00:00Z,29.4012,-89.0355,16.49,11111222 
WAVCIS,ioos:station:WAVCIS:CSI16:1,2009-02-09T03:00:00Z,29.4012,-89.0355,16.93,11111222 
WAVCIS,ioos:station:WAVCIS:CSI16:1,2009-02-09T04:00:00Z,29.4012,-89.0355,17.51,11111222 
WAVCIS,ioos:station:WAVCIS:CSI16:1,2009-02-09T05:00:00Z,29.4012,-89.0355,16.5,11111222 
WAVCIS,ioos:station:WAVCIS:CSI16:1,2009-02-09T06:00:00Z,29.4012,-89.0355,16.23,11111222 
WAVCIS,ioos:station:WAVCIS:CSI16:1,2009-02-09T07:00:00Z,29.4012,-89.0355,16.35,11111222 
WAVCIS,ioos:station:WAVCIS:CSI16:1,2009-02-09T08:00:00Z,29.4012,-89.0355,15.91,11111222 
WAVCIS,ioos:station:WAVCIS:CSI16:1,2009-02-09T09:00:00Z,29.4012,-89.0355,15.76,11111222 
WAVCIS,ioos:station:WAVCIS:CSI16:1,2009-02-09T10:00:00Z,29.4012,-89.0355,16.3,11111222 
WAVCIS,ioos:station:WAVCIS:CSI16:1,2009-02-09T11:00:00Z,29.4012,-89.0355,16.01,11111222 
WAVCIS,ioos:station:WAVCIS:CSI16:1,2009-02-09T12:00:00Z,29.4012,-89.0355,15.88,11111222 
WAVCIS,ioos:station:WAVCIS:CSI16:1,2009-02-09T13:00:00Z,29.4012,-89.0355,16.21,11111222 
WAVCIS,ioos:station:WAVCIS:CSI16:1,2009-02-09T14:00:00Z,29.4012,-89.0355,16.45,11111222 
WAVCIS,ioos:station:WAVCIS:CSI16:1,2009-02-09T15:00:00Z,29.4012,-89.0355,17.0,11111222 
WAVCIS,ioos:station:WAVCIS:CSI16:1,2009-02-09T16:00:00Z,29.4012,-89.0355,17.24,11111222 
WAVCIS,ioos:station:WAVCIS:CSI16:1,2009-02-09T17:00:00Z,29.4012,-89.0355,17.35,11111222 
WAVCIS,ioos:station:WAVCIS:CSI16:1,2009-02-09T18:00:00Z,29.4012,-89.0355,18.35,11111222 
WAVCIS,ioos:station:WAVCIS:CSI16:1,2009-02-09T19:00:00Z,29.4012,-89.0355,18.29,11111222 
WAVCIS,ioos:station:WAVCIS:CSI16:1,2009-02-09T20:00:00Z,29.4012,-89.0355,18.5,11111222 
WAVCIS,ioos:station:WAVCIS:CSI16:1,2009-02-09T21:00:00Z,29.4012,-89.0355,17.92,11111222 
WAVCIS,ioos:station:WAVCIS:CSI16:1,2009-02-09T22:00:00Z,29.4012,-89.0355,17.72,11111222 
WAVCIS,ioos:station:WAVCIS:CSI16:1,2009-02-09T23:00:00Z,29.4012,-89.0355,17.45,11111222 
WAVCIS,ioos:station:WAVCIS:CSI16:1,2009-02-10T00:00:00Z,29.4012,-89.0355,18.14,11111222 
WAVCIS,ioos:station:WAVCIS:CSI16:1,2009-02-10T01:00:00Z,29.4012,-89.0355,17.23,11111222 
WAVCIS,ioos:station:WAVCIS:CSI16:1,2009-02-10T02:00:00Z,29.4012,-89.0355,17.22,11111222 
WAVCIS,ioos:station:WAVCIS:CSI16:1,2009-02-10T03:00:00Z,29.4012,-89.0355,17.28,11111222 
WAVCIS,ioos:station:WAVCIS:CSI16:1,2009-02-10T04:00:00Z,29.4012,-89.0355,17.34,11111222 
WAVCIS,ioos:station:WAVCIS:CSI16:1,2009-02-10T05:00:00Z,29.4012,-89.0355,17.47,11111222 
WAVCIS,ioos:station:WAVCIS:CSI16:1,2009-02-10T06:00:00Z,29.4012,-89.0355,17.81,11111222 
WAVCIS,ioos:station:WAVCIS:CSI16:1,2009-02-10T07:00:00Z,29.4012,-89.0355,17.98,11111222 
WAVCIS,ioos:station:WAVCIS:CSI16:1,2009-02-10T08:00:00Z,29.4012,-89.0355,17.95,11111222 
WAVCIS,ioos:station:WAVCIS:CSI16:1,2009-02-10T09:00:00Z,29.4012,-89.0355,18.12,11111222 
WAVCIS,ioos:station:WAVCIS:CSI16:1,2009-02-10T10:00:00Z,29.4012,-89.0355,18.28,11111222 
WAVCIS,ioos:station:WAVCIS:CSI16:1,2009-02-10T11:00:00Z,29.4012,-89.0355,19.24,11111222 
WAVCIS,ioos:station:WAVCIS:CSI16:1,2009-02-10T12:00:00Z,29.4012,-89.0355,18.43,11111222 
WAVCIS,ioos:station:WAVCIS:CSI16:1,2009-02-10T13:00:00Z,29.4012,-89.0355,18.38,11111222 
WAVCIS,ioos:station:WAVCIS:CSI16:1,2009-02-10T14:00:00Z,29.4012,-89.0355,18.61,11111222 
WAVCIS,ioos:station:WAVCIS:CSI16:1,2009-02-10T15:00:00Z,29.4012,-89.0355,18.64,11111222 
WAVCIS,ioos:station:WAVCIS:CSI16:1,2009-02-10T16:00:00Z,29.4012,-89.0355,18.8,11111222 
WAVCIS,ioos:station:WAVCIS:CSI16:1,2009-02-10T17:00:00Z,29.4012,-89.0355,18.73,11111222 
WAVCIS,ioos:station:WAVCIS:CSI16:1,2009-02-10T18:00:00Z,29.4012,-89.0355,18.74,11111222 
WAVCIS,ioos:station:WAVCIS:CSI16:1,2009-02-10T19:00:00Z,29.4012,-89.0355,18.87,11111222 
WAVCIS,ioos:station:WAVCIS:CSI16:1,2009-02-10T20:00:00Z,29.4012,-89.0355,18.81,11111222 
WAVCIS,ioos:station:WAVCIS:CSI16:1,2009-02-10T21:00:00Z,29.4012,-89.0355,19.87,11111222 
WAVCIS,ioos:station:WAVCIS:CSI16:1,2009-02-10T22:00:00Z,29.4012,-89.0355,19.02,11111222 
WAVCIS,ioos:station:WAVCIS:CSI16:1,2009-02-10T23:00:00Z,29.4012,-89.0355,19.03,11111222 
WAVCIS,ioos:station:WAVCIS:CSI16:1,2009-02-11T00:00:00Z,29.4012,-89.0355,19.07,11111222 
WAVCIS,ioos:station:WAVCIS:CSI16:1,2009-02-11T01:00:00Z,29.4012,-89.0355,19.19,11111222 
WAVCIS,ioos:station:WAVCIS:CSI16:1,2009-02-11T02:00:00Z,29.4012,-89.0355,19.31,11111222 
WAVCIS,ioos:station:WAVCIS:CSI16:1,2009-02-11T03:00:00Z,29.4012,-89.0355,19.41,11111222 
WAVCIS,ioos:station:WAVCIS:CSI16:1,2009-02-11T04:00:00Z,29.4012,-89.0355,19.5,11111222 
WAVCIS,ioos:station:WAVCIS:CSI16:1,2009-02-11T05:00:00Z,29.4012,-89.0355,19.32,11111222 
WAVCIS,ioos:station:WAVCIS:CSI16:1,2009-02-11T06:00:00Z,29.4012,-89.0355,19.47,11111222 
WAVCIS,ioos:station:WAVCIS:CSI16:1,2009-02-11T07:00:00Z,29.4012,-89.0355,19.63,11111222 
WAVCIS,ioos:station:WAVCIS:CSI16:1,2009-02-11T08:00:00Z,29.4012,-89.0355,20.54,11111222 
WAVCIS,ioos:station:WAVCIS:CSI16:1,2009-02-11T09:00:00Z,29.4012,-89.0355,20.07,11111222 
WAVCIS,ioos:station:WAVCIS:CSI16:1,2009-02-11T10:00:00Z,29.4012,-89.0355,19.9,11111222 
WAVCIS,ioos:station:WAVCIS:CSI16:1,2009-02-11T11:00:00Z,29.4012,-89.0355,20.2,11111222 
WAVCIS,ioos:station:WAVCIS:CSI16:1,2009-02-11T12:00:00Z,29.4012,-89.0355,20.41,11111222 
WAVCIS,ioos:station:WAVCIS:CSI16:1,2009-02-11T13:00:00Z,29.4012,-89.0355,20.13,11111222 
WAVCIS,ioos:station:WAVCIS:CSI16:1,2009-02-11T14:00:00Z,29.4012,-89.0355,19.49,11111222 
WAVCIS,ioos:station:WAVCIS:CSI16:1,2009-02-11T15:00:00Z,29.4012,-89.0355,19.12,11111222 
WAVCIS,ioos:station:WAVCIS:CSI16:1,2009-02-11T16:00:00Z,29.4012,-89.0355,19.34,11111222 
WAVCIS,ioos:station:WAVCIS:CSI16:1,2009-02-11T17:00:00Z,29.4012,-89.0355,18.55,11111222 
WAVCIS,ioos:station:WAVCIS:CSI16:1,2009-02-11T18:00:00Z,29.4012,-89.0355,18.57,11111222 
WAVCIS,ioos:station:WAVCIS:CSI16:1,2009-02-11T19:00:00Z,29.4012,-89.0355,16.71,11111222 
WAVCIS,ioos:station:WAVCIS:CSI16:1,2009-02-11T20:00:00Z,29.4012,-89.0355,17.68,11111222 
WAVCIS,ioos:station:WAVCIS:CSI16:1,2009-02-11T21:00:00Z,29.4012,-89.0355,17.33,11111222 
WAVCIS,ioos:station:WAVCIS:CSI16:1,2009-02-11T22:00:00Z,29.4012,-89.0355,17.31,11111222 
WAVCIS,ioos:station:WAVCIS:CSI16:1,2009-02-11T23:00:00Z,29.4012,-89.0355,16.3,11111222 
WAVCIS,ioos:station:WAVCIS:CSI16:1,2009-02-12T00:00:00Z,29.4012,-89.0355,15.68,11111222 
WAVCIS,ioos:station:WAVCIS:CSI16:1,2009-02-12T01:00:00Z,29.4012,-89.0355,14.53,11111222 
WAVCIS,ioos:station:WAVCIS:CSI16:1,2009-02-12T02:00:00Z,29.4012,-89.0355,14.19,11111222 
WAVCIS,ioos:station:WAVCIS:CSI16:1,2009-02-12T03:00:00Z,29.4012,-89.0355,14.75,11111222 
WAVCIS,ioos:station:WAVCIS:CSI16:1,2009-02-12T04:00:00Z,29.4012,-89.0355,14.63,11111222 